Date String (YYYY-MM-DD hh:mm:ss) UTC,Instrument flags,absolute air pressure of the measurement (hPa),sample flow rate (lpm),inlet stack bypass flow (lpm),air temperature of the measurement (°C),ambient temperature measured by the external sensor (°C),aerosol sample conditioner tube jacket temperature (°C),OPC LED temperature (°C),internal box temperature (°C),relative humidity of the measurement (%),span deviation,mass concentration of particles derived from Lorenz-Mie calculation of OPC scattering (μg/m³),mass concentration of particles derived from Lorenz-Mie calculation of OPC scattering (μg/m³),mass concentration of particles derived from Lorenz-Mie calculation of OPC scattering (μg/m³)
DateTimeUTC,F1_M11,P_M11,Q1_M11,Q2_M11,T1_M11,T2_M11,T3_M11,T4_M11,T5_M11,U1_M11,ZSPAN_M11,X0_M11,X2_M11,X1_M11
2023-11-10 18:00:00,SystemResetWarning,0832.5,5.00,000.00,023.2,022.7,000.0,031.3,024.9,9.2,0000.0,0007.39,0003.36,0002.67
2023-11-10 18:01:00,SystemResetWarning,0832.5,5.00,000.00,023.3,022.7,000.0,031.4,024.9,8.8,0000.0,0007.21,0003.33,0002.70
2023-11-10 18:02:00,SystemResetWarning,0832.5,5.00,000.00,023.3,022.7,000.0,031.4,024.9,8.8,0000.0,0007.00,0003.35,0002.71
2023-11-10 18:03:00,SystemResetWarning,0832.5,4.99,000.00,023.3,022.8,000.0,031.4,024.9,8.4,0000.0,0006.24,0003.35,0002.71
2023-11-10 18:04:00,SystemResetWarning,0832.4,4.99,000.00,023.3,022.8,000.0,031.4,024.9,8.3,0000.0,0006.06,0003.30,0002.70
2023-11-10 18:05:00,SystemResetWarning,0832.4,4.99,000.00,023.3,022.8,000.0,031.4,025.0,8.3,0000.0,0006.07,0003.30,0002.70
2023-11-10 18:06:00,SystemResetWarning,0832.4,5.00,000.00,023.4,022.8,000.0,031.5,025.0,7.9,0000.0,0006.23,0003.32,0002.70
2023-11-10 18:07:00,SystemResetWarning,0832.4,5.00,000.00,023.4,022.9,000.0,031.5,025.0,7.9,0000.0,0006.43,0003.34,0002.68
2023-11-10 18:08:00,SystemResetWarning,0832.4,5.01,000.00,023.4,022.9,000.0,031.5,025.0,7.8,0000.0,0006.08,0003.31,0002.67
2023-11-10 18:09:00,SystemResetWarning,0832.3,5.01,000.00,023.4,022.9,000.0,031.5,025.0,7.9,0000.0,0005.09,0003.29,0002.67
2023-11-10 18:10:00,SystemResetWarning,0832.3,5.00,000.00,023.5,022.9,000.0,031.5,025.0,8.1,0000.0,0005.07,0003.27,0002.64
2023-11-10 18:11:00,SystemResetWarning,0832.3,4.99,000.00,023.5,022.9,000.0,031.6,025.0,7.8,0000.0,0005.12,0003.27,0002.63
2023-11-10 18:12:00,SystemResetWarning,0832.3,5.00,000.00,023.5,022.9,000.0,031.6,025.1,7.3,0000.0,0005.27,0003.25,0002.58
2023-11-10 18:13:00,SystemResetWarning,0832.3,5.00,000.00,023.5,023.0,000.0,031.6,025.1,7.4,0000.0,0005.12,0003.20,0002.54
2023-11-10 18:14:00,SystemResetWarning,0832.3,4.99,000.00,023.5,023.0,000.0,031.6,025.1,7.7,0000.0,0004.91,0003.15,0002.52
2023-11-10 18:15:00,SystemResetWarning,0832.2,5.00,000.00,023.5,023.0,000.0,031.6,025.1,7.8,0000.0,0004.79,0003.15,0002.50
2023-11-10 18:16:00,SystemResetWarning,0832.2,5.00,000.00,023.6,023.0,000.0,031.7,025.2,8.0,0000.0,0004.73,0003.10,0002.45
2023-11-10 18:17:00,SystemResetWarning,0832.2,5.00,000.00,023.6,023.0,000.0,031.7,025.2,8.1,0000.0,0004.53,0003.02,0002.40
2023-11-10 18:18:00,SystemResetWarning,0832.2,5.00,000.00,023.6,023.1,000.0,031.7,025.2,8.2,0000.0,0004.31,0002.95,0002.39
2023-11-10 18:19:00,SystemResetWarning,0832.2,5.00,000.00,023.6,023.1,000.0,031.7,025.2,8.2,0000.0,0004.31,0002.92,0002.38
2023-11-10 18:20:00,SystemResetWarning,0832.2,5.00,000.00,023.7,023.1,000.0,031.8,025.3,8.0,0000.0,0004.32,0002.92,0002.36
2023-11-10 18:21:00,SystemResetWarning,0832.2,5.00,000.00,023.7,023.1,000.0,031.8,025.3,8.0,0000.0,0004.38,0002.90,0002.38
2023-11-10 18:22:00,SystemResetWarning,0832.2,4.99,000.00,023.7,023.2,000.0,031.8,025.3,8.0,0000.0,0005.49,0002.89,0002.39
2023-11-10 18:23:00,SystemResetWarning,0832.2,4.99,000.00,023.7,023.2,000.0,031.8,025.3,8.1,0000.0,0005.83,0002.92,0002.41
2023-11-10 18:24:00,SystemResetWarning,0832.1,5.00,000.00,023.7,023.2,000.0,031.8,025.3,8.2,0000.0,0006.01,0002.99,0002.43
2023-11-10 18:25:00,SystemResetWarning,0832.2,5.00,000.00,023.8,023.2,000.0,031.9,025.3,8.2,0000.0,0006.25,0003.09,0002.46
2023-11-10 18:26:00,SystemResetWarning,0832.1,5.00,000.00,023.8,023.2,000.0,031.9,025.4,8.0,0000.0,0006.36,0003.11,0002.46
2023-11-10 18:27:00,SystemResetWarning,0832.1,5.00,000.00,023.8,023.3,000.0,031.9,025.4,8.1,0000.0,0006.50,0003.15,0002.51
2023-11-10 18:28:00,SystemResetWarning,0832.1,5.00,000.00,023.8,023.3,000.0,031.9,025.4,8.1,0000.0,0006.72,0003.20,0002.56
2023-11-10 18:29:00,SystemResetWarning,0832.0,5.00,000.00,023.8,023.3,000.0,031.9,025.5,8.2,0000.0,0007.01,0003.23,0002.58
2023-11-10 18:30:00,SystemResetWarning,0832.0,4.99,000.00,023.9,023.3,000.0,032.0,025.5,8.3,0000.0,0007.05,0003.25,0002.61
2023-11-10 18:31:00,SystemResetWarning,0832.0,5.00,000.00,023.9,023.3,000.0,032.0,025.5,8.4,0000.0,0007.30,0003.30,0002.63
2023-11-10 18:32:00,SystemResetWarning,0832.0,5.00,000.00,023.9,023.3,000.0,032.0,025.5,8.6,0000.0,0007.78,0003.33,0002.65
2023-11-10 18:33:00,SystemResetWarning,0831.9,4.99,000.00,023.9,023.4,000.0,032.0,025.5,8.6,0000.0,0007.90,0003.35,0002.67
2023-11-10 18:34:00,SystemResetWarning,0831.8,4.99,000.00,023.9,023.4,000.0,032.0,025.5,8.0,0000.0,0007.66,0003.41,0002.70
2023-11-10 18:35:00,SystemResetWarning,0831.8,5.00,000.00,024.0,023.4,000.0,032.1,025.5,7.9,0000.0,0007.66,0003.43,0002.73
2023-11-10 18:36:00,SystemResetWarning,0831.8,5.00,000.00,024.0,023.4,000.0,032.1,025.5,7.6,0000.0,0007.95,0003.43,0002.76
2023-11-10 18:37:00,SystemResetWarning,0832.0,5.00,000.00,024.0,023.4,000.0,032.1,025.5,6.7,0000.0,0007.86,0003.41,0002.78
2023-11-10 18:38:00,SystemResetWarning,0832.0,5.00,000.00,024.0,023.4,000.0,032.1,025.5,7.2,0000.0,0007.94,0003.42,0002.78
2023-11-10 18:39:00,SystemResetWarning,0831.7,5.00,000.00,024.0,023.4,000.0,032.1,025.6,7.8,0000.0,0007.88,0003.41,0002.76
2023-11-10 18:40:00,SystemResetWarning,0831.7,5.01,000.00,024.1,023.5,000.0,032.2,025.6,8.0,0000.0,0007.84,0003.39,0002.71
2023-11-10 18:41:00,SystemResetWarning,0831.7,5.00,000.00,024.1,023.5,000.0,032.2,025.6,7.9,0000.0,0007.89,0003.38,0002.65
2023-11-10 18:42:00,SystemResetWarning,0831.7,5.00,000.00,024.1,023.5,000.0,032.2,025.6,7.8,0000.0,0007.82,0003.35,0002.63
2023-11-10 18:43:00,SystemResetWarning,0831.7,5.00,000.00,024.1,023.5,000.0,032.2,025.6,7.2,0000.0,0007.36,0003.37,0002.64
2023-11-10 18:44:00,SystemResetWarning,0831.7,5.00,000.00,024.1,023.5,000.0,032.2,025.6,7.1,0000.0,0006.45,0003.36,0002.63
2023-11-10 18:45:00,SystemResetWarning,0831.6,5.00,000.00,024.1,023.5,000.0,032.3,025.6,7.2,0000.0,0006.17,0003.31,0002.62
2023-11-10 18:46:00,SystemResetWarning,0831.6,5.00,000.00,024.1,023.5,000.0,032.3,025.6,7.6,0000.0,0006.24,0003.29,0002.58
2023-11-10 18:47:00,SystemResetWarning,0831.6,5.00,000.00,024.2,023.5,000.0,032.3,025.7,7.6,0000.0,0005.68,0003.26,0002.53
2023-11-10 18:48:00,SystemResetWarning,0831.6,4.99,000.00,024.2,023.6,000.0,032.3,025.7,6.9,0000.0,0005.70,0003.25,0002.48
2023-11-10 18:49:00,SystemResetWarning,0831.6,5.00,000.00,024.2,023.6,000.0,032.3,025.7,6.6,0000.0,0005.53,0003.24,0002.47
2023-11-10 18:50:00,SystemResetWarning,0831.6,5.00,000.00,024.2,023.6,000.0,032.3,025.7,6.7,0000.0,0005.80,0003.22,0002.47
2023-11-10 18:51:00,SystemResetWarning,0831.6,5.00,000.00,024.2,023.6,000.0,032.4,025.7,6.8,0000.0,0006.14,0003.22,0002.48
2023-11-10 18:52:00,SystemResetWarning,0831.6,5.00,000.00,024.2,023.6,000.0,032.4,025.7,6.4,0000.0,0005.91,0003.20,0002.50
2023-11-10 18:53:00,SystemResetWarning,0831.6,5.00,000.00,024.2,023.6,000.0,032.4,025.7,6.5,0000.0,0005.84,0003.20,0002.49
2023-11-10 18:54:00,SystemResetWarning,0831.6,5.01,000.00,024.2,023.6,000.0,032.4,025.7,6.8,0000.0,0005.83,0003.19,0002.44
2023-11-10 18:55:00,SystemResetWarning,0831.6,5.00,000.00,024.3,023.6,000.0,032.4,025.7,6.9,0000.0,0005.72,0003.15,0002.39
2023-11-10 18:56:00,SystemResetWarning,0831.6,5.00,000.00,024.3,023.6,000.0,032.4,025.8,6.7,0000.0,0005.66,0003.11,0002.33
2023-11-10 18:57:00,SystemResetWarning,0831.6,5.00,000.00,024.3,023.7,000.0,032.5,025.8,6.3,0000.0,0005.67,0003.08,0002.29
2023-11-10 18:58:00,SystemResetWarning,0831.5,4.99,000.00,024.3,023.7,000.0,032.5,025.9,6.4,0000.0,0005.61,0003.06,0002.27
2023-11-10 18:59:00,SystemResetWarning,0831.6,4.99,000.00,024.3,023.7,000.0,032.5,025.9,6.6,0000.0,0006.91,0003.08,0002.26
